Regional Weather Roundup
Issued by NWS

Home | Current Version | Previous Version | Graphics & Text | Print | Product List | Glossary On
Versions: 1 2 3 4 5 6 7 8 9 10 11 12 13 14 15 16 17 18 19 20 21 22 23 24 25 26 27 28 29 30 31 32 33 34 35 36 37 38 39 40 41 42 43 44 45 46 47 48 49 50
000
ASUS45 KBOU 250207
RWRCO

WEATHER ROUNDUP FOR COLORADO
NATIONAL WEATHER SERVICE DENVER/BOULDER CO
700 PM MST FRI FEB 24 2017

NOTE: "FAIR" INDICATES FEW OR NO CLOUDS BELOW 12000 FEET WITH NO
SIGNIFICANT WEATHER AND/OR OBSTRUCTIONS TO VISIBILITY.

COZ001>005-013-030-031-250300-
...NORTHWEST COLORADO...

CITY           SKY/WX    TMP DP  RH WIND       PRES   REMARKS
CRAIG          FAIR      13   5  70 SW5       30.01R WCI   5
HAYDEN         FAIR      12   3  67 S5        29.99R WCI   4
MEEKER         CLOUDY    21  15  78 W3        29.99R
MOUNT WERNER   NOT AVBL
STEAMBOAT SPGS MOCLDY    15   7  71 CALM      29.97R
WALDEN         NOT AVBL
$$

COZ006>008-011-250300-
...WEST CENTRAL VALLEYS...

CITY           SKY/WX    TMP DP  RH WIND       PRES   REMARKS
GRAND JUNCTION FAIR      27  19  72 NW13      30.04R WCI  16
MONTROSE       CLOUDY    24  20  84 S8        30.05R WCI  15
EAGLE          LGT SNOW  21  16  79 E10       29.98R WCI  10
RIFLE          LGT SNOW  25  20  81 SW9       30.03R WCI  15
DELTA          FAIR      30  20  65 S12       30.03R WCI  21
NUCLA          FAIR      28   9  43 NW9       30.07R WCI  20
$$

COZ017>023-064>068-250300-
...SOUTHWEST COLORADO...

CITY           SKY/WX    TMP DP  RH WIND       PRES   REMARKS
DURANGO        MOCLDY    25  10  53 W7        29.99R WCI  17
CORTEZ         MOCLDY    26  18  71 NE3       30.03R
PAGOSA SPRINGS FAIR      23   5  46 SW5       29.95R WCI  17
TELLURIDE      FLURRIES  14   9  79 W9        29.95R WCI   2
WOLF CREEK PAS LGT SNOW   1   0  92 SW17G26   29.86R WCI -19
$$

COZ009-010-012-014-032>034-037-058>063-250300-
...CENTRAL COLORADO...

CITY           SKY/WX    TMP DP  RH WIND       PRES   REMARKS
ASPEN          CLOUDY    16  12  84 N7        29.92R WCI   6
BUENA VISTA    FAIR      19   2  47 W13       29.88R WCI   7
COPPER MTN     LGT SNOW   5  -4  66 MISG      29.75R
BERTHOUD PASS  CLOUDY    -6 -15  65 NW22      29.71R HAZE    WCI -31
COTTONWOOD PAS FAIR      14   0  52 W7        29.84R WCI   4
GUNNISON       FAIR      17  10  74 W8        29.94R WCI   7
KREMMLING      MOCLDY    21   9  58 NW5       29.95R WCI  15
LEADVILLE      LGT SNOW   7   3  84 W5        29.82R FOG     WCI  -2
MONARCH PASS   CLOUDY     1  -4  78 W23G31    29.87S WCI -21
SALIDA         FAIR      23   4  44 W9        29.98R WCI  13
SUNLIGHT       NOT AVBL
WILKERSON PASS CLOUDY     7  -4  61 W5        29.81R WCI  -2
$$

COZ069>075-250300-
...SAN LUIS VALLEY/SANGRE DE CRISTO MOUNTAINS...

CITY           SKY/WX    TMP DP  RH WIND       PRES   REMARKS
ALAMOSA        FAIR      19  15  84 N3        29.92R
LA VETA PASS   MOCLDY    10   5  79 S13G24    29.84R WCI  -5
SAGUACHE       FAIR      19   3  49 N14       29.91R WCI   6
$$

COZ035-036-038>040-250300-
...NORTHERN COLORADO FRONT RANGE...

CITY           SKY/WX    TMP DP  RH WIND       PRES   REMARKS
DENVER INTL AP MOCLDY    22  14  71 E7        30.00R WCI  13
DMNS CITY PARK   N/A     24  13  61 E2G8      30.00S
AURORA         MOCLDY    21  15  77 E6        30.00R WCI  14
FRONT RANGE AP NOT AVBL
ERIE MUNI ARPT CLOUDY    25  16  67 NE3       30.02R
BOULDER MUN AP FAIR      21  19  93 CALM      30.01R
CENTENNIAL     MOCLDY    20  11  68 CALM      29.98R
BROOMFIELD     FLURRIES  23  19  86 CALM      30.00R
FORT COLLINS   FAIR      22  15  75 SE6       30.03R WCI  14
LONGMONT       CLOUDY    21  16  82 W5        30.05R WCI  15
$$

COZ041-046-047-076>085-087-088-250300-
...PIKES PEAK/PALMER DIVIDE AND SOUTHERN FOOTHILLS...

CITY           SKY/WX    TMP DP  RH WIND       PRES   REMARKS
COLO. SPRINGS  FLURRIES  24  11  57 NE7       29.98R WCI  16
A. F. ACADEMY  LGT SNOW  18  14  86 NW6       29.95R WCI   9
SCHRIEVER AFB  FLURRIES  22  11  64 NE7       29.98R WCI  13
ELLICOTT       MOCLDY   N/A N/A N/A E7        29.97R
FALCON         LGT SNOW  19  13  79 NE3       29.95S
FORT CARSON    NOT AVBL
LIMON          FAIR      19  12  74 N3        30.01R
MONUMENT HILL  LGT SNOW  16  10  79 CALM      29.95R
TRINIDAD       FAIR      24   8  50 NE9       29.98R WCI  14
$$

COZ042>045-048>051-090-091-250300-
...NORTHEAST COLORADO...

CITY           SKY/WX    TMP DP  RH WIND       PRES   REMARKS
GREELEY ARPT   MOCLDY    23  16  74 SE5       30.05R WCI  17
AKRON          CLOUDY    21  15  78 NW5       30.04R WCI  15
BURLINGTON     CLOUDY    26  17  68 N9        30.06R WCI  17
WRAY           NOT AVBL
STERLING       CLOUDY    23  18  80 CALM      30.07R
HOLYOKE        FAIR      25  21  86 CALM      30.09R
FORT MORGAN    CLOUDY    23  18  80 CALM      30.06R
$$

COZ086-089-092>099-250300-
...SOUTHEAST COLORADO...

CITY           SKY/WX    TMP DP  RH WIND       PRES   REMARKS
PUEBLO         FAIR      28   9  44 E6        30.01R WCI  22
LA JUNTA       FAIR      28  11  48 E8        30.04R WCI  20
LAMAR          FAIR      26  12  55 E7        30.06R WCI  18
SPRINGFIELD      N/A     24  11  57 NE6       30.03R WCI  17
$$



USA.gov is the U.S. government's official web portal to all federal, state and local government web resources and services.